SCP
0 0 0 0 0 0 0 0 0 0 0 0 0 0 0 0 0 0 0 0 0 0 0 0 0 0 0 0 0 0 0 0 0 0 0 0 0 0 0 0 0 0 0
0 0 0 0 0 0 0 0 0 0 0 0 0 0 0 0 0 0 0 0 0 0 0 0 0 0 0 0 0 0 0 0 0 0 0 0 0 0 0 0 0 0 0
0 0 0 0 0 0 0 0 0 0 0 0 0 0 0 0 0 0 0 0 0 0 0 0 0 0 0 0 0 0 0 0 0 0 0 0 0 0 0 0 0 0 0
0 0 0 0 0 0 0 0 0 0 0 0 0 0 0 0 0 0 0 0 0 0 0 0 0 0 0 0 0 0 0 0 0 0 0 0 0 0 0 0 0 0 0
0 0 0 0 0 0 0 0 0 0 0 0 0 0 0 0 0 0 0 0 0 0 0 0 0 0 0 0 0 0 0 0 0 0 0 0 0 0 0 0 0 0 0
0 1 0 0 0 0 0 0 0 0 0 0 0 0 0 0 0 0 0 0 0 0 0 0 0 0 0 0 0 0 0 0 0 0 0 0 0 0 0 0 0 0 0
1 1 1 1 0 0 0 0 0 1 1 0 0 0 0 0 0 0 0 0 0 0 0 0 0 0 0 0 0 0 0 0 0 0 0 0 0 0 0 0 0 0 0
1 1 1 1 1 0 1 1 0 0 1 0 0 0 0 0 0 0 0 0 0 0 0 0 0 0 0 0 0 0 0 0 0 0 0 0 0 0 0 0 0 0 -0
0 0 1 1 1 1 0 1 1 1 1 1 0 1 0 0 0 0 0 0 0 0 0 0 0 0 0 0 0 0 0 0 0 0 0 0 0 0 0 0 0 0 0
0 0 0 0 1 1 1 0 1 1 2 1 1 0 0 0 0 0 0 0 0 0 0 0 0 0 0 0 0 0 0 0 0 0 0 0 0 0 0 0 0 0 0
0 1 1 1 1 1 1 1 1 1 1 2 2 1 0 0 0 0 0 0 0 0 0 0 0 0 0 0 0 0 0 0 0 0 0 0 0 0 0 0 0 0 0
0 0 0 1 1 1 1 1 1 1 1 2 3 2 0 0 0 0 0 0 0 0 0 0 0 0 0 0 0 0 0 0 0 0 0 0 0 0 0 0 0 0 0
0 0 0 1 1 1 1 1 1 1 2 2 2 1 1 1 0 0 0 0 0 0 0 0 0 0 0 0 0 0 0 0 0 0 0 0 0 0 0 0 0 0 0
0 1 1 1 1 1 1 1 1 1 1 2 1 0 1 0 0 0 0 0 0 0 0 0 0 0 0 0 0 0 0 0 0 0 0 0 0 0 0 0 0 0 0
1 1 1 1 0 1 1 1 1 1 1 1 1 0 1 0 0 0 0 0 0 0 0 0 0 0 0 0 0 0 0 0 0 0 0 0 0 0 0 0 0 0 0
0 1 1 1 1 1 1 1 1 1 2 1 1 1 1 0 0 0 0 0 0 0 0 0 0 0 0 0 0 0 0 0 0 0 0 0 0 0 0 0 0 0 0
0 0 0 1 0 0 1 1 1 1 1 1 1 1 0 0 0 0 0 0 0 0 0 0 0 0 0 0 0 0 0 0 0 0 0 0 0 0 0 0 0 0 0
0 0 0 0 0 0 1 1 1 1 1 1 1 0 0 0 0 0 0 0 0 0 0 0 0 0 0 0 0 0 0 0 0 0 0 0 0 0 0 0 0 0 0
0 0 0 0 0 0 1 1 1 1 1 1 1 1 0 0 0 0 0 0 0 0 0 0 0 0 0 0 0 0 0 0 0 0 0 0 0 0 0 0 0 0 0
0 0 0 0 0 0 0 1 1 1 0 1 1 1 0 0 0 0 0 0 0 0 0 0 0 0 0 0 0 0 0 0 0 0 0 0 0 0 0 0 0 0 0
0 0 0 0 0 0 1 1 1 1 1 1 0 0 0 0 0 0 0 0 0 0 0 0 0 0 0 0 0 0 0 0 0 0 0 0 0 0 0 0 0 0 0
0 0 0 0 0 0 1 1 1 1 1 1 0 0 0 0 0 0 0 0 0 0 0 0 0 0 0 0 0 0 0 0 0 0 0 0 0 0 0 0 0 0 0
0 0 0 0 0 0 0 0 0 1 1 1 0 0 0 0 0 0 0 0 0 0 0 0 0 0 0 0 0 0 0 0 0 0 0 0 0 0 0 0 0 0 0
0 0 0 0 0 0 0 0 0 0 0 0 0 0 0 0 0 0 0 0 0 0 0 0 0 0 0 0 0 0 0 0 0 0 0 0 0 0 0 0 0 0 0
0 0 0 0 0 0 0 0 0 0 0 0 0 0 0 0 0 0 0 0 0 0 0 0 0 0 0 0 0 0 0 0 0 0 0 0 0 0 0 0 0 0 0
0 0 0 0 0 0 0 0 0 1 0 0 0 0 0 0 0 0 0 0 0 0 0 0 0 0 0 0 0 0 0 0 0 0 0 0 0 0 0 0 0 0 0
Wind_Speed_500mb
43 38 34 30 27 25 28 27 27 26 24 20 15 13 12 13 18 12 8 7 11 15 19 24 26 24 25 34 34 38 36 36 38 38 40 40 43 45 44 43 42 46 41
43 41 38 34 30 28 29 31 30 28 27 23 20 16 16 14 20 16 8 6 6 10 14 19 24 24 27 24 31 37 35 38 38 40 42 46 47 44 43 41 44 41 41
42 42 42 41 35 32 32 33 33 32 30 28 24 24 24 26 22 18 10 8 5 4 10 14 20 25 29 27 27 32 35 38 35 42 46 49 48 48 48 45 44 44 46
40 41 44 45 41 38 35 35 37 37 35 30 30 26 26 28 27 22 14 11 8 4 4 9 14 21 27 27 31 30 33 37 37 44 49 49 47 47 47 49 49 47 44
35 35 42 48 45 46 42 38 38 38 38 32 34 35 26 26 25 24 17 13 12 8 5 6 9 17 23 27 30 34 26 33 39 44 52 49 49 50 51 52 50 48 46
26 30 32 37 44 52 51 46 43 39 36 33 38 34 32 27 30 28 25 20 19 14 11 7 9 11 19 24 28 34 23 27 36 47 53 48 48 51 54 56 47 45 44
19 25 29 37 41 47 53 49 48 43 42 35 38 33 32 34 36 35 34 31 25 21 19 14 12 12 13 20 26 32 26 28 35 48 53 50 49 51 54 54 43 43 46
18 22 29 31 35 43 38 47 51 44 39 41 38 33 25 36 43 45 45 42 34 30 26 21 19 16 16 13 22 30 26 28 37 46 50 51 49 52 53 50 47 42 44
32 29 28 29 29 36 44 30 42 53 43 45 47 33 17 25 25 43 52 48 43 39 34 28 25 22 18 15 17 26 24 26 34 43 48 51 50 53 55 50 49 49 49
41 40 34 33 31 30 40 45 58 57 51 49 51 60 46 27 16 12 36 45 48 47 42 35 31 27 21 16 18 22 22 23 30 40 46 49 50 50 54 54 50 50 47
45 46 45 42 38 34 35 40 55 63 64 57 56 53 64 56 46 29 20 25 41 47 46 41 34 31 24 18 18 21 19 22 28 37 44 47 52 51 52 54 53 54 49
37 38 43 47 47 42 39 45 47 65 68 65 61 62 61 57 45 42 28 23 22 36 44 43 38 34 28 20 18 18 18 19 24 33 41 45 50 54 54 53 51 50 53
43 40 36 42 51 50 46 45 52 54 69 73 66 65 67 68 55 51 35 24 19 26 34 42 40 37 32 24 19 17 17 17 21 30 38 44 50 58 59 57 52 49 49
44 44 45 43 47 52 52 53 51 53 54 62 66 66 71 71 68 60 53 43 23 21 30 30 43 40 36 27 20 16 16 16 19 27 35 42 50 58 62 59 55 51 50
55 55 52 50 49 54 57 53 51 52 58 63 72 71 82 74 65 56 52 47 34 23 28 32 32 42 39 31 22 18 16 16 16 24 32 40 48 57 62 61 57 54 53
53 56 59 58 55 53 55 59 55 54 60 66 78 83 79 73 65 54 55 48 49 33 21 23 33 36 41 34 26 21 18 17 16 20 29 37 46 55 62 63 63 56 55
52 53 55 56 57 60 60 61 63 58 59 66 70 78 93 72 63 58 54 52 52 43 26 26 32 36 40 38 29 26 19 20 17 17 24 33 41 52 60 63 64 61 57
53 61 59 59 61 59 59 62 65 65 64 69 78 86 92 85 69 60 52 58 56 47 42 38 35 38 44 41 32 25 22 23 14 16 20 30 37 47 56 60 62 63 60
52 61 66 67 65 60 56 60 63 65 68 69 73 93 90 93 78 72 66 62 59 52 46 42 34 40 47 46 38 32 27 28 17 17 19 25 34 43 49 53 59 61 61
59 60 64 68 72 70 67 60 63 64 70 73 72 79 92 105 90 78 69 66 60 55 49 42 37 39 46 46 39 32 31 28 18 13 12 17 28 34 41 48 55 56 60
65 68 69 66 69 70 67 65 64 70 73 75 76 78 90 85 91 77 70 65 59 60 50 48 40 43 44 48 44 35 27 23 21 16 10 7 11 19 34 45 49 50 54
71 71 72 68 67 73 68 62 70 74 75 74 80 81 80 80 83 73 61 57 52 59 50 51 42 46 47 47 39 32 29 24 18 17 14 5 4 14 25 39 41 44 49
78 78 79 71 70 75 76 61 70 73 75 78 84 83 77 92 86 71 59 56 49 39 33 34 39 48 45 44 38 39 33 24 19 15 19 8 7 10 19 32 35 41 47
82 86 81 75 70 75 74 69 63 67 73 83 85 81 79 89 85 74 70 62 54 46 38 31 24 31 33 31 28 28 30 30 24 20 19 10 10 9 15 20 30 37 45
85 82 79 75 71 75 73 66 61 63 69 88 88 75 96 100 93 79 69 72 63 58 49 42 37 31 32 28 32 36 33 27 21 20 21 14 14 11 12 17 18 30 41
90 79 80 73 74 73 70 63 61 64 71 89 84 80 90 90 83 77 78 79 71 66 61 56 50 43 35 33 33 29 27 27 22 17 21 17 20 13 5 14 17 24 26
Wind_Direction_500mb
229 231 234 235 232 229 239 237 233 221 216 218 238 268 280 278 270 274 284 349 4 20 38 33 42 52 14 24 18 19 25 22 22 14 8 3 360 357 352 353 351 355 346
238 238 240 240 240 237 237 245 240 231 222 229 244 255 260 260 260 250 261 308 338 21 40 34 37 37 30 32 3 20 21 21 20 9 2 6 7 358 355 356 357 348 343
246 245 246 246 245 243 240 242 242 237 231 233 248 255 250 240 245 242 241 264 282 25 41 31 27 27 23 23 14 17 14 19 14 5 4 6 7 1 359 360 356 350 346
248 247 246 247 247 248 245 240 242 242 236 236 245 254 249 239 232 229 234 245 238 227 23 22 9 12 16 16 14 17 10 13 6 3 5 7 5 1 3 2 0 357 351
254 257 256 248 243 246 246 243 243 239 238 234 241 249 241 235 228 225 230 243 239 235 223 338 341 353 6 9 9 10 14 7 1 3 4 7 5 3 4 5 9 359 358
265 260 265 259 249 244 243 241 239 238 233 236 247 253 234 224 225 226 228 235 236 233 243 274 300 324 354 360 1 3 13 3 360 4 2 7 6 7 8 12 10 4 3
276 271 276 267 263 247 243 242 241 240 237 240 244 235 226 221 226 231 236 238 236 236 244 258 262 294 334 347 353 354 355 358 1 3 3 8 7 9 12 13 11 6 7
286 287 284 289 278 247 248 243 244 241 238 237 231 216 211 226 229 233 235 235 234 238 245 251 256 279 314 325 337 344 346 349 354 1 3 7 9 11 14 12 7 6 4
277 280 283 283 286 262 247 241 252 242 240 241 232 218 196 224 215 236 239 239 235 238 243 247 250 261 290 308 326 337 340 343 351 358 3 6 9 12 15 11 8 3 4
277 275 270 274 279 276 261 236 229 249 240 238 236 226 226 225 210 215 236 238 235 237 241 244 245 249 268 290 304 324 331 337 347 355 2 5 8 11 16 13 9 8 7
273 271 265 263 265 276 269 246 236 239 233 235 239 234 238 240 244 239 242 227 237 237 239 238 240 241 252 272 291 312 325 328 340 351 360 3 7 9 14 13 10 12 10
284 283 267 260 260 263 274 263 248 239 233 229 239 242 242 239 238 235 235 231 228 236 235 232 231 234 245 257 274 300 313 318 331 347 357 1 6 9 13 11 9 12 13
281 283 283 274 262 264 270 265 254 244 240 232 236 244 246 247 240 252 239 230 217 233 228 227 226 230 237 245 262 284 301 308 323 342 353 359 5 10 14 11 6 11 14
282 283 281 276 268 261 265 264 257 249 241 241 223 235 243 241 243 250 250 247 225 224 226 222 224 229 230 236 249 266 287 294 313 335 348 358 6 12 16 12 7 8 15
281 275 274 276 271 268 261 261 255 252 243 241 229 229 235 235 235 243 248 253 231 215 217 229 222 226 223 230 239 247 271 279 298 326 343 355 6 11 14 14 8 10 14
278 270 267 268 269 269 264 257 255 250 243 247 238 239 231 230 229 236 247 248 245 229 217 221 218 228 220 221 228 239 254 261 280 316 338 352 4 9 11 11 9 14 16
279 270 267 267 267 266 263 258 256 253 246 248 245 235 226 231 231 231 239 243 237 232 209 223 222 222 216 213 221 230 245 244 266 302 332 348 2 7 9 9 10 16 16
284 277 274 271 269 268 267 260 254 257 253 246 245 242 234 231 232 233 234 237 234 231 223 229 222 216 210 209 219 223 234 228 227 286 321 340 357 6 8 7 12 16 15
295 283 275 271 271 271 265 260 254 251 255 254 246 241 239 232 232 228 228 228 227 228 224 230 224 211 209 206 212 212 220 226 226 274 303 328 350 3 7 7 16 16 15
293 296 283 271 269 270 267 258 250 248 256 255 253 240 240 236 231 227 226 225 223 222 217 222 217 212 205 205 208 211 211 219 215 225 268 306 340 0 5 10 19 17 16
288 298 293 275 265 265 265 258 249 247 253 258 250 240 243 236 226 226 227 223 217 214 215 214 205 196 194 200 204 200 194 202 214 220 221 280 348 9 9 14 18 19 18
284 295 291 280 266 262 266 261 251 250 257 251 247 239 240 219 222 220 226 229 226 216 217 204 205 196 199 202 195 195 191 187 198 215 182 244 22 30 19 18 17 21 23
283 290 290 281 267 260 264 265 255 248 254 250 246 238 236 223 222 212 213 211 215 219 229 229 224 204 202 202 203 196 197 189 192 190 162 144 108 61 39 21 20 25 28
284 288 287 279 266 258 258 263 267 246 247 250 246 243 240 209 205 198 196 201 202 199 193 188 196 205 196 193 195 198 199 197 205 190 173 154 134 92 56 33 25 28 30
286 285 282 276 265 256 257 261 262 245 242 246 243 245 230 215 194 193 196 196 193 190 180 173 174 177 185 190 193 186 194 182 178 176 184 169 157 116 72 43 31 32 36
283 280 276 270 266 257 255 257 253 242 240 238 235 238 220 196 189 193 196 195 191 187 182 177 183 182 186 178 180 186 189 181 178 158 189 170 170 148 98 48 43 37 33
Wind_Speed_850mb
43 38 34 30 27 25 28 27 27 26 24 20 15 13 12 13 18 12 8 7 11 15 19 24 26 24 25 34 34 38 36 36 38 38 40 40 43 45 44 43 42 46 41
43 41 38 34 30 28 29 31 30 28 27 23 20 16 16 14 20 16 8 6 6 10 14 19 24 24 27 24 31 37 35 38 38 40 42 46 47 44 43 41 44 41 41
42 42 42 41 35 32 32 33 33 32 30 28 24 24 24 26 22 18 10 8 5 4 10 14 20 25 29 27 27 32 35 38 35 42 46 49 48 48 48 45 44 44 46
40 41 44 45 41 38 35 35 37 37 35 30 30 26 26 28 27 22 14 11 8 4 4 9 14 21 27 27 31 30 33 37 37 44 49 49 47 47 47 49 49 47 44
35 35 42 48 45 46 42 38 38 38 38 32 34 35 26 26 25 24 17 13 12 8 5 6 9 17 23 27 30 34 26 33 39 44 52 49 49 50 51 52 50 48 46
26 30 32 37 44 52 51 46 43 39 36 33 38 34 32 27 30 28 25 20 19 14 11 7 9 11 19 24 28 34 23 27 36 47 53 48 48 51 54 56 47 45 44
19 25 29 37 41 47 53 49 48 43 42 35 38 33 32 34 36 35 34 31 25 21 19 14 12 12 13 20 26 32 26 28 35 48 53 50 49 51 54 54 43 43 46
18 22 29 31 35 43 38 47 51 44 39 41 38 33 25 36 43 45 45 42 34 30 26 21 19 16 16 13 22 30 26 28 37 46 50 51 49 52 53 50 47 42 44
32 29 28 29 29 36 44 30 42 53 43 45 47 33 17 25 25 43 52 48 43 39 34 28 25 22 18 15 17 26 24 26 34 43 48 51 50 53 55 50 49 49 49
41 40 34 33 31 30 40 45 58 57 51 49 51 60 46 27 16 12 36 45 48 47 42 35 31 27 21 16 18 22 22 23 30 40 46 49 50 50 54 54 50 50 47
45 46 45 42 38 34 35 40 55 63 64 57 56 53 64 56 46 29 20 25 41 47 46 41 34 31 24 18 18 21 19 22 28 37 44 47 52 51 52 54 53 54 49
37 38 43 47 47 42 39 45 47 65 68 65 61 62 61 57 45 42 28 23 22 36 44 43 38 34 28 20 18 18 18 19 24 33 41 45 50 54 54 53 51 50 53
43 40 36 42 51 50 46 45 52 54 69 73 66 65 67 68 55 51 35 24 19 26 34 42 40 37 32 24 19 17 17 17 21 30 38 44 50 58 59 57 52 49 49
44 44 45 43 47 52 52 53 51 53 54 62 66 66 71 71 68 60 53 43 23 21 30 30 43 40 36 27 20 16 16 16 19 27 35 42 50 58 62 59 55 51 50
55 55 52 50 49 54 57 53 51 52 58 63 72 71 82 74 65 56 52 47 34 23 28 32 32 42 39 31 22 18 16 16 16 24 32 40 48 57 62 61 57 54 53
53 56 59 58 55 53 55 59 55 54 60 66 78 83 79 73 65 54 55 48 49 33 21 23 33 36 41 34 26 21 18 17 16 20 29 37 46 55 62 63 63 56 55
52 53 55 56 57 60 60 61 63 58 59 66 70 78 93 72 63 58 54 52 52 43 26 26 32 36 40 38 29 26 19 20 17 17 24 33 41 52 60 63 64 61 57
53 61 59 59 61 59 59 62 65 65 64 69 78 86 92 85 69 60 52 58 56 47 42 38 35 38 44 41 32 25 22 23 14 16 20 30 37 47 56 60 62 63 60
52 61 66 67 65 60 56 60 63 65 68 69 73 93 90 93 78 72 66 62 59 52 46 42 34 40 47 46 38 32 27 28 17 17 19 25 34 43 49 53 59 61 61
59 60 64 68 72 70 67 60 63 64 70 73 72 79 92 105 90 78 69 66 60 55 49 42 37 39 46 46 39 32 31 28 18 13 12 17 28 34 41 48 55 56 60
65 68 69 66 69 70 67 65 64 70 73 75 76 78 90 85 91 77 70 65 59 60 50 48 40 43 44 48 44 35 27 23 21 16 10 7 11 19 34 45 49 50 54
71 71 72 68 67 73 68 62 70 74 75 74 80 81 80 80 83 73 61 57 52 59 50 51 42 46 47 47 39 32 29 24 18 17 14 5 4 14 25 39 41 44 49
78 78 79 71 70 75 76 61 70 73 75 78 84 83 77 92 86 71 59 56 49 39 33 34 39 48 45 44 38 39 33 24 19 15 19 8 7 10 19 32 35 41 47
82 86 81 75 70 75 74 69 63 67 73 83 85 81 79 89 85 74 70 62 54 46 38 31 24 31 33 31 28 28 30 30 24 20 19 10 10 9 15 20 30 37 45
85 82 79 75 71 75 73 66 61 63 69 88 88 75 96 100 93 79 69 72 63 58 49 42 37 31 32 28 32 36 33 27 21 20 21 14 14 11 12 17 18 30 41
90 79 80 73 74 73 70 63 61 64 71 89 84 80 90 90 83 77 78 79 71 66 61 56 50 43 35 33 33 29 27 27 22 17 21 17 20 13 5 14 17 24 26
Wind_Direction_850mb
229 231 234 235 232 229 239 237 233 221 216 218 238 268 280 278 270 274 284 349 4 20 38 33 42 52 14 24 18 19 25 22 22 14 8 3 360 357 352 353 351 355 346
238 238 240 240 240 237 237 245 240 231 222 229 244 255 260 260 260 250 261 308 338 21 40 34 37 37 30 32 3 20 21 21 20 9 2 6 7 358 355 356 357 348 343
246 245 246 246 245 243 240 242 242 237 231 233 248 255 250 240 245 242 241 264 282 25 41 31 27 27 23 23 14 17 14 19 14 5 4 6 7 1 359 360 356 350 346
248 247 246 247 247 248 245 240 242 242 236 236 245 254 249 239 232 229 234 245 238 227 23 22 9 12 16 16 14 17 10 13 6 3 5 7 5 1 3 2 0 357 351
254 257 256 248 243 246 246 243 243 239 238 234 241 249 241 235 228 225 230 243 239 235 223 338 341 353 6 9 9 10 14 7 1 3 4 7 5 3 4 5 9 359 358
265 260 265 259 249 244 243 241 239 238 233 236 247 253 234 224 225 226 228 235 236 233 243 274 300 324 354 360 1 3 13 3 360 4 2 7 6 7 8 12 10 4 3
276 271 276 267 263 247 243 242 241 240 237 240 244 235 226 221 226 231 236 238 236 236 244 258 262 294 334 347 353 354 355 358 1 3 3 8 7 9 12 13 11 6 7
286 287 284 289 278 247 248 243 244 241 238 237 231 216 211 226 229 233 235 235 234 238 245 251 256 279 314 325 337 344 346 349 354 1 3 7 9 11 14 12 7 6 4
277 280 283 283 286 262 247 241 252 242 240 241 232 218 196 224 215 236 239 239 235 238 243 247 250 261 290 308 326 337 340 343 351 358 3 6 9 12 15 11 8 3 4
277 275 270 274 279 276 261 236 229 249 240 238 236 226 226 225 210 215 236 238 235 237 241 244 245 249 268 290 304 324 331 337 347 355 2 5 8 11 16 13 9 8 7
273 271 265 263 265 276 269 246 236 239 233 235 239 234 238 240 244 239 242 227 237 237 239 238 240 241 252 272 291 312 325 328 340 351 360 3 7 9 14 13 10 12 10
284 283 267 260 260 263 274 263 248 239 233 229 239 242 242 239 238 235 235 231 228 236 235 232 231 234 245 257 274 300 313 318 331 347 357 1 6 9 13 11 9 12 13
281 283 283 274 262 264 270 265 254 244 240 232 236 244 246 247 240 252 239 230 217 233 228 227 226 230 237 245 262 284 301 308 323 342 353 359 5 10 14 11 6 11 14
282 283 281 276 268 261 265 264 257 249 241 241 223 235 243 241 243 250 250 247 225 224 226 222 224 229 230 236 249 266 287 294 313 335 348 358 6 12 16 12 7 8 15
281 275 274 276 271 268 261 261 255 252 243 241 229 229 235 235 235 243 248 253 231 215 217 229 222 226 223 230 239 247 271 279 298 326 343 355 6 11 14 14 8 10 14
278 270 267 268 269 269 264 257 255 250 243 247 238 239 231 230 229 236 247 248 245 229 217 221 218 228 220 221 228 239 254 261 280 316 338 352 4 9 11 11 9 14 16
279 270 267 267 267 266 263 258 256 253 246 248 245 235 226 231 231 231 239 243 237 232 209 223 222 222 216 213 221 230 245 244 266 302 332 348 2 7 9 9 10 16 16
284 277 274 271 269 268 267 260 254 257 253 246 245 242 234 231 232 233 234 237 234 231 223 229 222 216 210 209 219 223 234 228 227 286 321 340 357 6 8 7 12 16 15
295 283 275 271 271 271 265 260 254 251 255 254 246 241 239 232 232 228 228 228 227 228 224 230 224 211 209 206 212 212 220 226 226 274 303 328 350 3 7 7 16 16 15
293 296 283 271 269 270 267 258 250 248 256 255 253 240 240 236 231 227 226 225 223 222 217 222 217 212 205 205 208 211 211 219 215 225 268 306 340 0 5 10 19 17 16
288 298 293 275 265 265 265 258 249 247 253 258 250 240 243 236 226 226 227 223 217 214 215 214 205 196 194 200 204 200 194 202 214 220 221 280 348 9 9 14 18 19 18
284 295 291 280 266 262 266 261 251 250 257 251 247 239 240 219 222 220 226 229 226 216 217 204 205 196 199 202 195 195 191 187 198 215 182 244 22 30 19 18 17 21 23
283 290 290 281 267 260 264 265 255 248 254 250 246 238 236 223 222 212 213 211 215 219 229 229 224 204 202 202 203 196 197 189 192 190 162 144 108 61 39 21 20 25 28
284 288 287 279 266 258 258 263 267 246 247 250 246 243 240 209 205 198 196 201 202 199 193 188 196 205 196 193 195 198 199 197 205 190 173 154 134 92 56 33 25 28 30
286 285 282 276 265 256 257 261 262 245 242 246 243 245 230 215 194 193 196 196 193 190 180 173 174 177 185 190 193 186 194 182 178 176 184 169 157 116 72 43 31 32 36
283 280 276 270 266 257 255 257 253 242 240 238 235 238 220 196 189 193 196 195 191 187 182 177 183 182 186 178 180 186 189 181 178 158 189 170 170 148 98 48 43 37 33